Location: Arrodets-la-Barthe
(43.0306°N, 0.2829°E)
Time: 18:50:41
(UTC+00:00)

SWARM C - Pass Details

Date: 24 October 2021
Orbit: 424 x 429 km, 87.3° (Epoch: 01 December)

Event Time Altitude Azimuth Distance (km) Brightness Sun altitude
Rises 18:21:36 0° 173° (S) 2,388 8.2 -15.2°
Reaches altitude 10° 18:23:38 10° 170° (S) 1,527 7.2 -15.6°
Maximum altitude 18:26:54 62° 89° (E) 490 4.4 -16.2°
Drops below altitude 10° 18:30:12 10° 8° (N) 1,543 7.2 -16.8°
Sets 18:32:15 0° 5° (N) 2,416 8.2 -17.1°
